Change the Weather History Date:

Tuesday, December 11, 2012

  Actual Average Record
Temperature  
Mean Temperature 32 °F -  
Max Temperature 37 °F 42 °F 55 °F (1997)
Min Temperature 27 °F 34 °F 17 °F (2002)
Degree Days  
Heating Degree Days 33    
Moisture  
Dew Point 29 °F    
Average Humidity 84    
Maximum Humidity 100    
Minimum Humidity 60    
Precipitation  
Precipitation 0.02 in - - ()
Sea Level Pressure  
Sea Level Pressure 30.29 in    
Wind  
Wind Speed 7 mph ()    
Max Wind Speed 13 mph    
Max Gust Speed -    
Visibility 6.9 miles    
Events Rain , Snow    
Averages and records for this station are not official NWS values.
T = Trace of Precipitation, MM = Missing Value Source: Averaged Metar Reports

Daily Weather History Graph

Daily Weather History Graph

Search for Another Location

Airport or City:

Trip Planner

Search our weather history database for the weather conditions in past years. The results will help you decide how hot, cold, wet, or windy it might be!

Date:

Astronomy

Dec. 11, 2012 Rise Set
Actual Time 8:40 AM CET 4:27 PM CET
Civil Twilight 7:59 AM CET 5:08 PM CET
Nautical Twilight 7:15 AM CET 5:52 PM CET
Astronomical Twilight 6:34 AM CET 6:33 PM CET
Moon 6:07 AM CET (12/11) 3:00 PM CET (12/11)
Length of Visible Light 9h 08m
Length of Day
7h 46m
Waning Crescent, 5% of the Moon is Illuminated
Dec 11
Waning Crescent
Dec 13
New
Dec 20
First Quarter
Dec 28
Full
Jan 5
Last Quarter

Hourly Weather History & Observations

Time (CET) Temp. Windchill Dew Point Humidity Pressure Visibility Wind Dir Wind Speed Gust Speed Precip Events Conditions
12:25 AM 32.0 °F 25.6 °F 26.6 °F 80% 30.21 in - North 6.9 mph - N/A   Clear
12:55 AM 33.8 °F 27.7 °F 26.6 °F 75% 30.21 in - North 6.9 mph - N/A   Clear
1:00 AM 33 °F - 26 °F 68% 30.23 in 18 mi North 6.7 mph - -   Partly Cloudy
1:25 AM 32.0 °F 25.6 °F 26.6 °F 80% 30.21 in 6.2 mi North 6.9 mph - N/A   Partly Cloudy
1:55 AM 30.2 °F 22.6 °F 24.8 °F 80% 30.21 in 6.2 mi NNW 8.1 mph - N/A   Partly Cloudy
2:25 AM 28.4 °F 22.2 °F 24.8 °F 86% 30.21 in - NNW 5.8 mph - N/A   Clear
2:55 AM 28.4 °F 21.2 °F 23.0 °F 80% 30.24 in - NW 6.9 mph - N/A   Clear
3:25 AM 32.0 °F 24.8 °F 24.8 °F 75% 30.24 in - North 8.1 mph - N/A   Clear
3:55 AM 33.8 °F 26.4 °F 24.8 °F 70% 30.24 in - North 9.2 mph - N/A   Clear
4:00 AM 32 °F - 25 °F 66% 30.26 in 25 mi North 8.9 mph - -  
4:25 AM 32.0 °F 24.8 °F 24.8 °F 75% 30.24 in - North 8.1 mph - N/A   Clear
4:55 AM 33.8 °F 25.3 °F 28.4 °F 81% 30.27 in 6.2 mi NNE 11.5 mph - N/A   Scattered Clouds
5:25 AM 33.8 °F 25.3 °F 30.2 °F 87% 30.27 in 6.2 mi North 11.5 mph - N/A   Scattered Clouds
5:55 AM 33.8 °F 25.8 °F 30.2 °F 87% 30.27 in 6.2 mi NNE 10.4 mph - N/A Snow Light Snow
6:25 AM 32.0 °F 25.6 °F 30.2 °F 93% 30.30 in 6.2 mi North 6.9 mph - N/A   Partly Cloudy
6:55 AM 32.0 °F 24.8 °F 30.2 °F 93% 30.30 in 6.2 mi North 8.1 mph - N/A   Scattered Clouds
7:00 AM 33 °F - 30 °F 83% 30.32 in 14 mi NNE 8.9 mph - - Snow Snow
7:25 AM 32.0 °F 25.6 °F 30.2 °F 93% 30.30 in 6.2 mi NNE 6.9 mph - N/A   Partly Cloudy
7:55 AM 32.0 °F 26.4 °F 28.4 °F 87% 30.33 in 6.2 mi North 5.8 mph - N/A   Partly Cloudy
8:25 AM 30.2 °F 25.4 °F 26.6 °F 86% 30.33 in 6.2 mi NNW 4.6 mph - N/A   Partly Cloudy
8:55 AM 28.4 °F 22.2 °F 26.6 °F 93% 30.33 in 6.2 mi NNW 5.8 mph - N/A   Partly Cloudy
9:25 AM 30.2 °F 24.3 °F 28.4 °F 93% 30.33 in 6.2 mi NNW 5.8 mph - N/A   Partly Cloudy
9:55 AM 30.2 °F 23.4 °F 30.2 °F 100% 30.33 in 6.2 mi NNW 6.9 mph - N/A   Partly Cloudy
10:00 AM 31 °F - 30 °F 93% 30.36 in 6 mi NNW 6.7 mph - -   Mist
10:25 AM 32.0 °F 26.4 °F 30.2 °F 93% 30.33 in 6.2 mi NW 5.8 mph - N/A   Partly Cloudy
10:55 AM 33.8 °F 29.6 °F 30.2 °F 87% 30.36 in 6.2 mi North 4.6 mph - N/A   Partly Cloudy
11:25 AM 35.6 °F 31.7 °F 30.2 °F 81% 30.36 in - North 4.6 mph - N/A   Clear
11:55 AM 35.6 °F 32.8 °F 28.4 °F 75% 30.33 in 6.2 mi NNE 3.5 mph - N/A   Partly Cloudy
12:25 PM 35.6 °F 32.8 °F 28.4 °F 75% 30.33 in 6.2 mi NW 3.5 mph - N/A   Partly Cloudy
12:55 PM 37.4 °F 34.9 °F 28.4 °F 70% 30.33 in 6.2 mi WSW 3.5 mph - N/A   Partly Cloudy
1:00 PM 37 °F - 28 °F 60% 30.35 in 16 mi West 2.2 mph - -   Partly Cloudy
1:25 PM 37.4 °F 33.8 °F 28.4 °F 70% 30.33 in 6.2 mi WNW 4.6 mph - N/A   Partly Cloudy
1:55 PM 37.4 °F 33.8 °F 28.4 °F 70% 30.33 in 6.2 mi WNW 4.6 mph - N/A   Mostly Cloudy
2:25 PM 37.4 °F 34.9 °F 24.8 °F 60% 30.33 in 6.2 mi WNW 3.5 mph - N/A   Mostly Cloudy
2:55 PM 37.4 °F 32.8 °F 26.6 °F 65% 30.33 in 6.2 mi West 5.8 mph - N/A   Scattered Clouds
3:25 PM 35.6 °F 29.9 °F 26.6 °F 70% 30.33 in 6.2 mi WNW 6.9 mph - N/A   Partly Cloudy
3:55 PM 33.8 °F 27.7 °F 26.6 °F 75% 30.33 in 6.2 mi West 6.9 mph - N/A   Partly Cloudy
4:00 PM 35 °F - 28 °F 66% 30.34 in 22 mi West 6.7 mph - -   Mostly Cloudy
4:25 PM 33.8 °F 26.4 °F 28.4 °F 81% 30.33 in 6.2 mi West 9.2 mph - N/A   Scattered Clouds
4:55 PM 33.8 °F 27.0 °F 30.2 °F 87% 30.33 in 5.0 mi West 8.1 mph - N/A   Mostly Cloudy
5:25 PM 32.0 °F 27.5 °F 30.2 °F 93% 30.30 in 6.2 mi WNW 4.6 mph - N/A   Scattered Clouds
5:55 PM 32.0 °F 27.5 °F 30.2 °F 93% 30.30 in 6.2 mi West 4.6 mph - N/A   Partly Cloudy
6:25 PM 33.8 °F 28.6 °F 32.0 °F 93% 30.30 in 6.2 mi West 5.8 mph - N/A   Scattered Clouds
6:55 PM 33.8 °F 28.6 °F 32.0 °F 93% 30.30 in 6.2 mi West 5.8 mph - N/A   Mostly Cloudy
7:00 PM 34 °F - 32 °F 90% 30.32 in 9 mi NW 4.5 mph - - Rain Light Drizzle
7:25 PM 33.8 °F 27.7 °F 32.0 °F 93% 30.30 in 3.1 mi West 6.9 mph - N/A Snow Snow Showers
7:55 PM 32.0 °F 25.6 °F 32.0 °F 100% 30.30 in - SSW 6.9 mph - N/A   Clear
8:25 PM 32.0 °F 25.6 °F 30.2 °F 93% 30.27 in - SW 6.9 mph - N/A   Clear
8:55 PM 30.2 °F 22.6 °F 30.2 °F 100% 30.27 in - SSW 8.1 mph - N/A   Clear
9:25 PM 32.0 °F 23.6 °F 32.0 °F 100% 30.27 in - SW 10.4 mph - N/A   Clear
9:55 PM 32.0 °F 23.0 °F 30.2 °F 93% 30.27 in 6.2 mi SW 11.5 mph - N/A   Partly Cloudy
10:00 PM 32 °F - 31 °F 94% 30.28 in 7 mi SW 11.2 mph - -   Partly Cloudy
10:25 PM 32.0 °F 22.5 °F 32.0 °F 100% 30.27 in 6.2 mi SW 12.7 mph - N/A   Partly Cloudy
10:55 PM 32.0 °F 23.0 °F 32.0 °F 100% 30.24 in 6.2 mi SW 11.5 mph - N/A   Partly Cloudy
11:25 PM 32.0 °F 23.6 °F 32.0 °F 100% 30.24 in - SW 10.4 mph - N/A   Clear
11:55 PM 32.0 °F 23.6 °F 30.2 °F 93% 30.24 in - SW 10.4 mph - N/A   Clear